This is the latest recevied weather packets stored in our database for station/object DB5WY-13. If no packets are shown the sender has not sent any weather packets the latest 10 day(s).
| Time | Temp. | Humidity | Pressure | Rain* | Wind** | Luminosity | Snow |
|---|---|---|---|---|---|---|---|
| 1776969650 | 11.11° C | 34% | 1026.1 hPa | 0 mm | - | - | - |
| 1776969050 | 11.67° C | 32% | 1026 hPa | 0 mm | - | - | - |
| 1776968450 | 11.67° C | 31% | 1026 hPa | 0 mm | - | - | - |
| 1776967851 | 12.22° C | 31% | 1025.9 hPa | 0 mm | - | - | - |
| 1776967250 | 12.78° C | 30% | 1026 hPa | 0 mm | - | - | - |
| 1776966650 | 13.33° C | 29% | 1025.9 hPa | 0 mm | - | - | - |
| 1776966050 | 13.89° C | 28% | 1026 hPa | 0 mm | - | - | - |
| 1776965450 | 13.89° C | 27% | 1025.9 hPa | 0 mm | - | - | - |
| 1776964851 | 14.44° C | 27% | 1026 hPa | 0 mm | - | - | - |
| 1776964251 | 15° C | 26% | 1025.9 hPa | 0 mm | - | - | - |
| 1776963651 | 15° C | 26% | 1026 hPa | 0 mm | - | - | - |
| 1776963051 | 15.56° C | 27% | 1026 hPa | 0 mm | - | - | - |
| 1776962451 | 15.56° C | 26% | 1026 hPa | 0 mm | - | - | - |
| 1776961851 | 16.11° C | 27% | 1025.9 hPa | 0 mm | - | - | - |
| 1776961251 | 16.11° C | 27% | 1025.9 hPa | 0 mm | - | - | - |
| 1776960651 | 16.67° C | 26% | 1026.1 hPa | 0 mm | - | - | - |
| 1776960051 | 16.67° C | 25% | 1026.2 hPa | 0 mm | - | - | - |
| 1776959451 | 17.22° C | 26% | 1026.2 hPa | 0 mm | - | - | - |
| 1776958851 | 17.22° C | 25% | 1026.2 hPa | 0 mm | - | - | - |
| 1776958251 | 17.78° C | 25% | 1026.2 hPa | 0 mm | - | - | - |
| 1776957651 | 17.78° C | 25% | 1026.2 hPa | 0 mm | - | - | - |
| 1776957051 | 17.78° C | 23% | 1026.4 hPa | 0 mm | - | - | - |
| 1776956451 | 18.33° C | 23% | 1026.5 hPa | 0 mm | - | - | - |
| 1776955851 | 18.33° C | 23% | 1026.7 hPa | 0 mm | - | - | - |
| 1776955251 | 18.89° C | 22% | 1026.7 hPa | 0 mm | - | - | - |
* Rain latest hour (hover to see other rain measurements)
** Current wind speed in m/s (hover to see current wind gust speed)